Regional Weather Roundup
Issued by NWS

Home | Current Version | Previous Version | Text Only | Print | Product List | Glossary Off
Versions: 1 2 3 4 5 6 7 8 9 10 11 12 13 14 15 16 17 18 19 20 21 22 23 24 25 26 27 28 29 30 31 32 33 34 35 36 37 38 39 40 41 42 43 44 45 46 47 48 49 50

000
ASUS43 KLSX 220759
RWRMO

WEATHER SUMMARY FOR MISSOURI
NATIONAL WEATHER SERVICE SPRINGFIELD MO
300 AM CDT SAT JUL 22 2017

NOTE: "FAIR" INDICATES FEW OR NO CLOUDS BELOW 12,000 FEET WITH NO
       SIGNIFICANT WEATHER AND/OR OBSTRUCTIONS TO VISIBILITY.
       CURRENT SKY AND/OR WEATHER CONDITIONS ARE NOT AVAILABLE FOR
       CHILLICOTHE AND FARMINGTON.

MOZ001>031-035>038-043-044-053-054-220900-
...NORTHERN AND WESTERN MISSOURI...

CITY           SKY/WX    TMP DP  RH WIND       PRES   REMARKS
KANSAS CTY INT CLEAR     84  72  67 SW17G24   29.82S
KANSAS C DTWN  CLEAR     86  73  65 SW15G22   29.81S HX  93
LEE`S SUMMIT   CLEAR     84  73  69 SW17      29.84F HX  90
ST JOSEPH      CLEAR     84  74  71 S16G22    29.78R HX  91
CHILLICOTHE      N/A     84  73  69 S9        29.80S HX  90
KIRKSVILLE     CLEAR     83  70  64 SW13      29.82S

$$
MOZ066>068-077>081-088>096-101>105-220900-
...SOUTHWEST MISSOURI...

CITY           SKY/WX    TMP DP  RH WIND       PRES   REMARKS
SPRINGFIELD    CLEAR     76  73  91 S8        29.93S
JOPLIN         CLEAR     83  72  69 S12       29.91F

$$
MOZ032>034-039>042-045>050-055>058-069>072-220900-
...CENTRAL MISSOURI...

CITY           SKY/WX    TMP DP  RH WIND       PRES   REMARKS
COLUMBIA       CLEAR     79  69  71 SW9       29.87R
JEFFERSON CITY CLEAR     82  72  71 VRB5      29.85S
ROLLA          CLEAR     77  73  87 S9        29.89F
SEDALIA        CLEAR     83  73  72 SW13      29.87S
WARRENSBURG    CLEAR     81  68  65 S8        29.85S
OSAGE BEACH    CLEAR     76  70  82 S5        29.89F

$$
MOZ051-052-059>065-220900-
...EAST CENTRAL MISSOURI...

CITY           SKY/WX    TMP DP  RH WIND       PRES   REMARKS
ST LOUIS INTL  CLEAR     88  72  58 SW10      29.86R HX  94
SPIRIT OF STL  CLEAR     84  73  69 SW8       29.84S HX  90
ST CHARLES     CLEAR     84  73  69 SW9       29.83S HX  90

$$
MOZ072>076-082>087-097>100-106>115-220900-
...SOUTH CENTRAL AND SOUTHEAST MISSOURI...

CITY           SKY/WX    TMP DP  RH WIND       PRES   REMARKS
CAPE GIRARDEAU CLEAR     79  73  82 W3        29.89F
FARMINGTON     CLEAR     79  74  84 SW8       29.91F
POPLAR BLUFF   CLEAR     79  77  94 SW5       29.90F
WEST PLAINS    CLEAR     80  73  79 SW7       29.95F

$$




USA.gov is the U.S. government's official web portal to all federal, state and local government web resources and services.